TAM9560 SBLO-SBPS

Flight info

Callsign TAM9560
Flight time 1h 47m
Altitude 37000
Route AKTIT UZ65 ANSOK DCT ROBAG DCT CNF DCT POSMU DCT OSUNO
Aircraft A319/M-SDE3FGHIRWY/LB1

Departure

Time 2026-05-05 21:36
Airport Governor José Richa Airport (SBLO)

Arrival

Time 2026-05-05 23:23
Airport Porto Seguro International Airport (SBPS)
Time Latitude Longitude Altitude Speed Heading
2026-05-05 21:18 -23.32964 -51.13688 1876 ft 0 kts 20°
2026-05-05 21:28 -23.32978 -51.13694 1876 ft 4 kts 17°
2026-05-05 21:28 -23.33004 -51.13700 1876 ft 4 kts 359°
2026-05-05 21:28 -23.33026 -51.13693 1872 ft 4 kts 306°
2026-05-05 21:29 -23.33031 -51.13687 1873 ft 0 kts 290°
2026-05-05 21:31 -23.33028 -51.13695 1872 ft 4 kts 289°
2026-05-05 21:31 -23.33016 -51.13735 1876 ft 7 kts 289°
2026-05-05 21:32 -23.32995 -51.13788 1875 ft 8 kts 292°
2026-05-05 21:32 -23.32975 -51.13850 1876 ft 9 kts 288°
2026-05-05 21:32 -23.32953 -51.13917 1876 ft 9 kts 290°
2026-05-05 21:32 -23.32955 -51.13933 1876 ft 2 kts 249°
2026-05-05 21:33 -23.32965 -51.13940 1873 ft 2 kts 204°
2026-05-05 21:33 -23.32972 -51.13940 1874 ft 0 kts 186°
2026-05-05 21:34 -23.32973 -51.13940 1875 ft 0 kts 185°
2026-05-05 21:34 -23.32975 -51.13940 1876 ft 0 kts 184°
2026-05-05 21:34 -23.32977 -51.13940 1876 ft 0 kts 184°
2026-05-05 21:35 -23.33024 -51.13946 1876 ft 14 kts 167°
2026-05-05 21:35 -23.33119 -51.13730 1877 ft 67 kts 109°
2026-05-05 21:35 -23.33361 -51.13000 1877 ft 135 kts 109°
2026-05-05 21:35 -23.33729 -51.11951 2315 ft 150 kts 111°
2026-05-05 21:36 -23.34093 -51.10893 2954 ft 149 kts 108°
2026-05-05 21:36 -23.34453 -51.09811 3545 ft 159 kts 108°
2026-05-05 21:36 -23.34852 -51.08600 3919 ft 181 kts 108°
2026-05-05 21:36 -23.35305 -51.07231 4366 ft 204 kts 108°
2026-05-05 21:37 -23.35478 -51.05638 4701 ft 224 kts 75°
2026-05-05 21:37 -23.34653 -51.04138 4945 ft 246 kts 45°
2026-05-05 21:37 -23.33456 -51.02705 5412 ft 264 kts 48°
2026-05-05 21:37 -23.32256 -51.01159 6203 ft 270 kts 52°
2026-05-05 21:38 -23.31199 -50.99454 7037 ft 273 kts 57°
2026-05-05 21:38 -23.30241 -50.97653 7863 ft 276 kts 60°
2026-05-05 21:38 -23.29311 -50.95813 8702 ft 279 kts 60°
2026-05-05 21:38 -23.28374 -50.93953 9536 ft 282 kts 60°
2026-05-05 21:39 -23.27419 -50.92085 10300 ft 286 kts 60°
2026-05-05 21:39 -23.26400 -50.90128 10557 ft 308 kts 59°
2026-05-05 21:39 -23.25291 -50.88032 10729 ft 331 kts 59°
2026-05-05 21:39 -23.24109 -50.85824 11086 ft 344 kts 59°
2026-05-05 21:40 -23.22891 -50.83557 11629 ft 350 kts 59°
2026-05-05 21:40 -23.21654 -50.81259 12191 ft 355 kts 59°
2026-05-05 21:40 -23.20401 -50.78923 12742 ft 360 kts 59°
2026-05-05 21:40 -23.19131 -50.76557 13309 ft 364 kts 59°
2026-05-05 21:41 -23.17847 -50.74165 13838 ft 369 kts 59°
2026-05-05 21:41 -23.16547 -50.71741 14301 ft 373 kts 59°
2026-05-05 21:41 -23.15232 -50.69290 14757 ft 378 kts 59°
2026-05-05 21:41 -23.13902 -50.66810 15227 ft 382 kts 59°
2026-05-05 21:42 -23.12572 -50.64339 15709 ft 385 kts 59°
2026-05-05 21:42 -23.11198 -50.61789 16206 ft 388 kts 59°
2026-05-05 21:42 -23.09824 -50.59244 16669 ft 393 kts 60°
2026-05-05 21:42 -23.08434 -50.56670 17147 ft 397 kts 60°
2026-05-05 21:43 -23.07033 -50.54072 17619 ft 401 kts 60°
2026-05-05 21:43 -23.05635 -50.51482 18087 ft 405 kts 60°
2026-05-05 21:43 -23.04203 -50.48830 18556 ft 409 kts 60°
2026-05-05 21:43 -23.02765 -50.46152 18976 ft 413 kts 60°
2026-05-05 21:44 -23.01356 -50.43373 19438 ft 416 kts 62°
2026-05-05 21:44 -23.00012 -50.40580 19903 ft 419 kts 63°
2026-05-05 21:44 -22.98707 -50.37796 20356 ft 422 kts 64°
2026-05-05 21:44 -22.97828 -50.35911 20663 ft 424 kts 64°
2026-05-05 21:45 -22.96487 -50.33049 21097 ft 427 kts 63°
2026-05-05 21:45 -22.95126 -50.30172 21521 ft 430 kts 63°
2026-05-05 21:45 -22.93743 -50.27282 21928 ft 434 kts 63°
2026-05-05 21:45 -22.92337 -50.24374 22322 ft 437 kts 63°
2026-05-05 21:46 -22.90916 -50.21453 22724 ft 440 kts 63°
2026-05-05 21:46 -22.89480 -50.18503 23112 ft 443 kts 63°
2026-05-05 21:46 -22.88052 -50.15565 23487 ft 446 kts 63°
2026-05-05 21:46 -22.86797 -50.12979 23795 ft 449 kts 63°
2026-05-05 21:47 -22.85342 -50.09977 24111 ft 452 kts 63°
2026-05-05 21:47 -22.84374 -50.07976 24320 ft 453 kts 63°
2026-05-05 21:47 -22.82711 -50.04537 24679 ft 457 kts 63°
2026-05-05 21:47 -22.81453 -50.01934 24943 ft 459 kts 63°
2026-05-05 21:48 -22.79965 -49.98859 25254 ft 462 kts 63°
2026-05-05 21:48 -22.78734 -49.96319 25516 ft 464 kts 63°
2026-05-05 21:48 -22.77430 -49.93634 25788 ft 467 kts 63°
2026-05-05 21:48 -22.76578 -49.91883 25963 ft 468 kts 63°
2026-05-05 21:49 -22.75785 -49.90252 26124 ft 470 kts 63°
2026-05-05 21:49 -22.74251 -49.87101 26424 ft 473 kts 63°
2026-05-05 21:49 -22.72712 -49.83941 26750 ft 476 kts 63°
2026-05-05 21:49 -22.71159 -49.80756 27060 ft 479 kts 63°
2026-05-05 21:50 -22.69597 -49.77558 27376 ft 482 kts 63°
2026-05-05 21:50 -22.68024 -49.74345 27679 ft 485 kts 63°
2026-05-05 21:50 -22.66438 -49.71113 27977 ft 487 kts 63°
2026-05-05 21:50 -22.64843 -49.67861 28270 ft 490 kts 63°
2026-05-05 21:51 -22.63243 -49.64587 28558 ft 493 kts 63°
2026-05-05 21:51 -22.61632 -49.61286 28841 ft 496 kts 63°
2026-05-05 21:51 -22.60014 -49.57978 29117 ft 498 kts 63°
2026-05-05 21:51 -22.58385 -49.54664 29397 ft 501 kts 63°
2026-05-05 21:52 -22.55087 -49.47990 29969 ft 505 kts 64°
2026-05-05 21:52 -22.53431 -49.44631 30235 ft 508 kts 64°
2026-05-05 21:52 -22.51766 -49.41247 30453 ft 510 kts 64°
2026-05-05 21:53 -22.50099 -49.37858 30761 ft 510 kts 64°
2026-05-05 21:53 -22.48436 -49.34477 31089 ft 510 kts 64°
2026-05-05 21:53 -22.46768 -49.31089 31402 ft 510 kts 64°
2026-05-05 21:53 -22.45102 -49.27704 31735 ft 509 kts 64°
2026-05-05 21:54 -22.43437 -49.24328 32062 ft 509 kts 64°
2026-05-05 21:54 -22.41768 -49.20953 32386 ft 509 kts 64°
2026-05-05 21:54 -22.40101 -49.17579 32718 ft 509 kts 64°
2026-05-05 21:54 -22.38429 -49.14205 33042 ft 509 kts 64°
2026-05-05 21:55 -22.36749 -49.10835 33368 ft 510 kts 64°
2026-05-05 21:55 -22.35057 -49.07460 33707 ft 510 kts 64°
2026-05-05 21:55 -22.33373 -49.04106 34087 ft 509 kts 64°
2026-05-05 21:55 -22.31679 -49.00743 34379 ft 509 kts 64°
2026-05-05 21:56 -22.29984 -48.97383 34648 ft 510 kts 64°
2026-05-05 21:56 -22.28287 -48.94018 34884 ft 511 kts 64°
2026-05-05 21:56 -22.26589 -48.90635 35119 ft 512 kts 65°
2026-05-05 21:56 -22.24893 -48.87250 35352 ft 513 kts 65°
2026-05-05 21:57 -22.23189 -48.83855 35558 ft 515 kts 65°
2026-05-05 21:57 -22.21498 -48.80498 35784 ft 516 kts 65°
2026-05-05 21:57 -22.19759 -48.77048 36003 ft 517 kts 65°
2026-05-05 21:57 -22.18034 -48.73632 36214 ft 519 kts 65°
2026-05-05 21:58 -22.16302 -48.70207 36427 ft 520 kts 65°
2026-05-05 21:58 -22.14591 -48.66827 36655 ft 521 kts 65°
2026-05-05 21:58 -22.12852 -48.63390 36874 ft 522 kts 66°
2026-05-05 21:58 -22.11117 -48.59955 37090 ft 523 kts 66°
2026-05-05 21:59 -22.09379 -48.56510 37148 ft 522 kts 66°
2026-05-05 21:59 -22.05898 -48.49642 37149 ft 522 kts 66°
2026-05-05 22:00 -22.02979 -48.43898 37147 ft 522 kts 66°
2026-05-05 22:00 -21.99503 -48.37044 37152 ft 520 kts 66°
2026-05-05 22:01 -21.96025 -48.30208 37158 ft 520 kts 65°
2026-05-05 22:01 -21.92546 -48.23379 37152 ft 520 kts 65°
2026-05-05 22:02 -21.89067 -48.16552 37179 ft 519 kts 65°
2026-05-05 22:02 -21.85587 -48.09743 37175 ft 519 kts 65°
2026-05-05 22:03 -21.82128 -48.02975 37171 ft 519 kts 65°
2026-05-05 22:03 -21.78651 -47.96177 37180 ft 518 kts 65°
2026-05-05 22:04 -21.75173 -47.89391 37184 ft 518 kts 65°
2026-05-05 22:04 -21.71699 -47.82621 37177 ft 517 kts 65°
2026-05-05 22:05 -21.68220 -47.75852 37182 ft 516 kts 65°
2026-05-05 22:05 -21.64752 -47.69113 37186 ft 515 kts 65°
2026-05-05 22:06 -21.61285 -47.62379 37182 ft 514 kts 65°
2026-05-05 22:06 -21.57828 -47.55663 37184 ft 513 kts 65°
2026-05-05 22:07 -21.54364 -47.48962 37185 ft 513 kts 64°
2026-05-05 22:07 -21.50897 -47.42266 37182 ft 512 kts 64°
2026-05-05 22:08 -21.47440 -47.35572 37195 ft 512 kts 64°
2026-05-05 22:08 -21.43982 -47.28898 37204 ft 511 kts 64°
2026-05-05 22:09 -21.40524 -47.22248 37200 ft 510 kts 64°
2026-05-05 22:09 -21.37069 -47.15600 37210 ft 510 kts 64°
2026-05-05 22:10 -21.33617 -47.08965 37207 ft 509 kts 64°
2026-05-05 22:10 -21.30168 -47.02338 37215 ft 509 kts 64°
2026-05-05 22:11 -21.26719 -46.95719 37221 ft 508 kts 64°
2026-05-05 22:11 -21.23271 -46.89108 37224 ft 507 kts 64°
2026-05-05 22:12 -21.19818 -46.82509 37222 ft 507 kts 64°
2026-05-05 22:12 -21.16371 -46.75926 37227 ft 506 kts 64°
2026-05-05 22:13 -21.12927 -46.69355 37223 ft 506 kts 64°
2026-05-05 22:13 -21.09482 -46.62782 37221 ft 506 kts 64°
2026-05-05 22:14 -21.06033 -46.56212 37224 ft 506 kts 64°
2026-05-05 22:14 -21.02579 -46.49653 37229 ft 505 kts 64°
2026-05-05 22:15 -20.99130 -46.43106 37231 ft 505 kts 64°
2026-05-05 22:15 -20.95679 -46.36560 37234 ft 505 kts 63°
2026-05-05 22:16 -20.92230 -46.30030 37234 ft 504 kts 63°
2026-05-05 22:16 -20.88782 -46.23504 37228 ft 504 kts 63°
2026-05-05 22:17 -20.85335 -46.16988 37223 ft 503 kts 63°
2026-05-05 22:17 -20.81885 -46.10470 37232 ft 503 kts 63°
2026-05-05 22:18 -20.78446 -46.03981 37227 ft 502 kts 63°
2026-05-05 22:18 -20.75003 -45.97495 37224 ft 501 kts 63°
2026-05-05 22:19 -20.71559 -45.91029 37215 ft 501 kts 62°
2026-05-05 22:19 -20.67883 -45.84757 37214 ft 502 kts 59°
2026-05-05 22:20 -20.63966 -45.78585 37213 ft 502 kts 58°
2026-05-05 22:20 -20.60072 -45.72410 37216 ft 501 kts 59°
2026-05-05 22:21 -20.56248 -45.66187 37216 ft 500 kts 59°
2026-05-05 22:21 -20.52461 -45.59964 37214 ft 500 kts 59°
2026-05-05 22:22 -20.48665 -45.53762 37223 ft 499 kts 59°
2026-05-05 22:22 -20.44852 -45.47564 37220 ft 499 kts 59°
2026-05-05 22:23 -20.41032 -45.41383 37215 ft 499 kts 59°
2026-05-05 22:23 -20.37212 -45.35210 37223 ft 499 kts 59°
2026-05-05 22:24 -20.33397 -45.29037 37219 ft 498 kts 59°
2026-05-05 22:24 -20.29591 -45.22874 37218 ft 498 kts 59°
2026-05-05 22:25 -20.25803 -45.16754 37221 ft 498 kts 58°
2026-05-05 22:25 -20.21987 -45.10603 37203 ft 498 kts 59°
2026-05-05 22:26 -20.18174 -45.04456 37202 ft 498 kts 59°
2026-05-05 22:26 -20.14350 -44.98302 37190 ft 498 kts 59°
2026-05-05 22:27 -20.10525 -44.92142 37190 ft 499 kts 59°
2026-05-05 22:27 -20.06696 -44.85971 37191 ft 500 kts 59°
2026-05-05 22:28 -20.02852 -44.79803 37207 ft 500 kts 58°
2026-05-05 22:28 -19.99001 -44.73645 37195 ft 500 kts 58°
2026-05-05 22:29 -19.95150 -44.67484 37198 ft 500 kts 58°
2026-05-05 22:29 -19.91303 -44.61329 37211 ft 500 kts 58°
2026-05-05 22:30 -19.87457 -44.55180 37214 ft 500 kts 58°
2026-05-05 22:30 -19.83614 -44.49036 37202 ft 499 kts 58°
2026-05-05 22:31 -19.79764 -44.42894 37208 ft 499 kts 58°
2026-05-05 22:31 -19.75914 -44.36759 37214 ft 499 kts 58°
2026-05-05 22:32 -19.72065 -44.30638 37214 ft 498 kts 58°
2026-05-05 22:32 -19.68240 -44.24565 37197 ft 498 kts 58°
2026-05-05 22:33 -19.64370 -44.18423 37205 ft 498 kts 58°
2026-05-05 22:33 -19.60522 -44.12316 37206 ft 497 kts 58°
2026-05-05 22:34 -19.56683 -44.06223 37263 ft 497 kts 58°
2026-05-05 22:34 -19.53346 -43.99834 37265 ft 495 kts 65°
2026-05-05 22:35 -19.50183 -43.93412 37257 ft 495 kts 65°
2026-05-05 22:35 -19.46960 -43.86911 37247 ft 495 kts 64°
2026-05-05 22:36 -19.43780 -43.80504 37253 ft 494 kts 64°
2026-05-05 22:36 -19.40590 -43.74057 37251 ft 494 kts 64°
2026-05-05 22:37 -19.37403 -43.67620 37221 ft 493 kts 64°
2026-05-05 22:37 -19.34210 -43.61185 37234 ft 493 kts 64°
2026-05-05 22:38 -19.31017 -43.54755 37237 ft 493 kts 64°
2026-05-05 22:38 -19.27817 -43.48330 37235 ft 493 kts 64°
2026-05-05 22:39 -19.24615 -43.41910 37248 ft 493 kts 64°
2026-05-05 22:39 -19.21408 -43.35495 37234 ft 492 kts 64°
2026-05-05 22:40 -19.18205 -43.29096 37231 ft 492 kts 64°
2026-05-05 22:40 -19.15004 -43.22689 37227 ft 492 kts 64°
2026-05-05 22:41 -19.11805 -43.16291 37229 ft 492 kts 64°
2026-05-05 22:41 -19.09141 -43.10979 37229 ft 492 kts 64°
2026-05-05 22:42 -19.05390 -43.03513 37229 ft 492 kts 64°
2026-05-05 22:42 -19.02698 -42.98151 37238 ft 492 kts 64°
2026-05-05 22:43 -18.99509 -42.91800 37242 ft 492 kts 64°
2026-05-05 22:43 -18.96303 -42.85421 37235 ft 492 kts 64°
2026-05-05 22:44 -18.93091 -42.79050 37246 ft 491 kts 63°
2026-05-05 22:44 -18.89876 -42.72674 37227 ft 491 kts 63°
2026-05-05 22:45 -18.86672 -42.66316 37224 ft 491 kts 63°
2026-05-05 22:45 -18.83458 -42.59955 37237 ft 491 kts 63°
2026-05-05 22:46 -18.80236 -42.53592 37238 ft 490 kts 63°
2026-05-05 22:46 -18.77029 -42.47248 37229 ft 490 kts 63°
2026-05-05 22:47 -18.73805 -42.40904 37215 ft 490 kts 63°
2026-05-05 22:47 -18.70540 -42.34599 37218 ft 490 kts 62°
2026-05-05 22:48 -18.67252 -42.28302 37215 ft 490 kts 62°
2026-05-05 22:48 -18.63978 -42.21998 37203 ft 490 kts 62°
2026-05-05 22:49 -18.60714 -42.15694 37209 ft 489 kts 62°
2026-05-05 22:49 -18.57475 -42.09440 37186 ft 489 kts 62°
2026-05-05 22:50 -18.54212 -42.03163 37186 ft 489 kts 62°
2026-05-05 22:50 -18.50932 -41.96882 37196 ft 489 kts 62°
2026-05-05 22:51 -18.47661 -41.90608 37195 ft 488 kts 62°
2026-05-05 22:51 -18.44384 -41.84333 37195 ft 488 kts 62°
2026-05-05 22:52 -18.41121 -41.78074 37180 ft 488 kts 62°
2026-05-05 22:52 -18.37855 -41.71812 37189 ft 488 kts 62°
2026-05-05 22:53 -18.34584 -41.65557 37190 ft 487 kts 62°
2026-05-05 22:53 -18.31309 -41.59313 37199 ft 487 kts 61°
2026-05-05 22:54 -18.28029 -41.53070 37206 ft 487 kts 61°
2026-05-05 22:54 -18.24760 -41.46823 37201 ft 487 kts 61°
2026-05-05 22:55 -18.21518 -41.40628 37191 ft 487 kts 61°
2026-05-05 22:55 -18.18242 -41.34399 37195 ft 486 kts 61°
2026-05-05 22:56 -18.14963 -41.28180 37200 ft 486 kts 61°
2026-05-05 22:56 -18.11690 -41.21965 37200 ft 486 kts 61°
2026-05-05 22:57 -18.08415 -41.15751 37200 ft 486 kts 61°
2026-05-05 22:57 -18.05141 -41.09545 37188 ft 486 kts 61°
2026-05-05 22:58 -18.01860 -41.03341 37189 ft 486 kts 61°
2026-05-05 22:58 -17.98580 -40.97134 37192 ft 486 kts 61°
2026-05-05 22:59 -17.95297 -40.90930 37200 ft 486 kts 60°
2026-05-05 22:59 -17.92016 -40.84723 37200 ft 486 kts 60°
2026-05-05 23:00 -17.87090 -40.75440 37184 ft 485 kts 60°
2026-05-05 23:00 -17.83798 -40.69250 37142 ft 487 kts 60°
2026-05-05 23:01 -17.82148 -40.66148 36881 ft 486 kts 60°
2026-05-05 23:01 -17.80498 -40.63049 36629 ft 486 kts 60°
2026-05-05 23:01 -17.78849 -40.59955 36384 ft 487 kts 60°
2026-05-05 23:01 -17.77197 -40.56852 36137 ft 487 kts 60°
2026-05-05 23:02 -17.75548 -40.53746 35892 ft 488 kts 60°
2026-05-05 23:02 -17.73894 -40.50634 35655 ft 488 kts 60°
2026-05-05 23:02 -17.72240 -40.47529 35415 ft 489 kts 60°
2026-05-05 23:02 -17.70579 -40.44416 35178 ft 489 kts 60°
2026-05-05 23:03 -17.68911 -40.41297 34942 ft 490 kts 60°
2026-05-05 23:03 -17.67271 -40.38225 34709 ft 490 kts 60°
2026-05-05 23:03 -17.65606 -40.35106 34478 ft 491 kts 60°
2026-05-05 23:03 -17.63935 -40.31977 34156 ft 490 kts 60°
2026-05-05 23:04 -17.62251 -40.28832 32973 ft 500 kts 60°
2026-05-05 23:04 -17.60539 -40.25640 31962 ft 506 kts 60°
2026-05-05 23:04 -17.58807 -40.22403 30979 ft 510 kts 60°
2026-05-05 23:04 -17.57083 -40.19169 30193 ft 508 kts 60°
2026-05-05 23:05 -17.55361 -40.15939 29243 ft 506 kts 60°
2026-05-05 23:05 -17.53642 -40.12727 28288 ft 505 kts 60°
2026-05-05 23:05 -17.51932 -40.09537 27592 ft 499 kts 60°
2026-05-05 23:05 -17.50244 -40.06395 26877 ft 493 kts 60°
2026-05-05 23:06 -17.48569 -40.03277 26168 ft 488 kts 60°
2026-05-05 23:06 -17.46914 -40.00201 25474 ft 483 kts 60°
2026-05-05 23:06 -17.45188 -39.97146 24772 ft 478 kts 55°
2026-05-05 23:06 -17.43091 -39.94480 24095 ft 472 kts 44°
2026-05-05 23:07 -17.40608 -39.92281 23386 ft 462 kts 33°
2026-05-05 23:07 -17.37898 -39.90625 22776 ft 442 kts 25°
2026-05-05 23:07 -17.35248 -39.89200 22223 ft 426 kts 26°
2026-05-05 23:07 -17.32627 -39.87778 21675 ft 412 kts 26°
2026-05-05 23:08 -17.30124 -39.86418 21161 ft 399 kts 27°
2026-05-05 23:08 -17.27713 -39.85107 20692 ft 395 kts 27°
2026-05-05 23:08 -17.25289 -39.83787 20198 ft 392 kts 27°
2026-05-05 23:08 -17.22873 -39.82480 19714 ft 389 kts 27°
2026-05-05 23:09 -17.20479 -39.81189 19240 ft 386 kts 27°
2026-05-05 23:09 -17.18100 -39.79904 18745 ft 383 kts 28°
2026-05-05 23:09 -17.15741 -39.78629 18217 ft 380 kts 28°
2026-05-05 23:09 -17.13403 -39.77366 17692 ft 376 kts 28°
2026-05-05 23:10 -17.11091 -39.76119 17191 ft 372 kts 28°
2026-05-05 23:10 -17.08800 -39.74889 16657 ft 369 kts 28°
2026-05-05 23:10 -17.06529 -39.73667 16147 ft 365 kts 28°
2026-05-05 23:10 -17.04279 -39.72451 15617 ft 363 kts 28°
2026-05-05 23:11 -17.02045 -39.71234 15085 ft 360 kts 30°
2026-05-05 23:11 -16.99834 -39.69929 14476 ft 367 kts 32°
2026-05-05 23:11 -16.97647 -39.68555 13852 ft 366 kts 33°
2026-05-05 23:11 -16.95484 -39.67161 13211 ft 364 kts 33°
2026-05-05 23:12 -16.93341 -39.65773 12609 ft 360 kts 33°
2026-05-05 23:12 -16.91222 -39.64411 12017 ft 356 kts 33°
2026-05-05 23:12 -16.89110 -39.63067 11442 ft 353 kts 33°
2026-05-05 23:12 -16.87020 -39.61747 10873 ft 350 kts 33°
2026-05-05 23:13 -16.84939 -39.60444 10327 ft 347 kts 33°
2026-05-05 23:13 -16.82896 -39.59171 10088 ft 335 kts 33°
2026-05-05 23:13 -16.80938 -39.57951 9885 ft 322 kts 33°
2026-05-05 23:13 -16.79084 -39.56795 9878 ft 301 kts 33°
2026-05-05 23:14 -16.77325 -39.55695 9692 ft 291 kts 33°
2026-05-05 23:14 -16.75591 -39.54604 9524 ft 289 kts 33°
2026-05-05 23:14 -16.73879 -39.53506 9341 ft 288 kts 37°
2026-05-05 23:14 -16.72291 -39.52251 9208 ft 286 kts 40°
2026-05-05 23:15 -16.70706 -39.50989 8988 ft 286 kts 40°
2026-05-05 23:15 -16.69124 -39.49734 8689 ft 285 kts 39°
2026-05-05 23:15 -16.67547 -39.48490 8372 ft 284 kts 39°
2026-05-05 23:15 -16.65972 -39.47246 8050 ft 283 kts 39°
2026-05-05 23:16 -16.64406 -39.46007 7728 ft 282 kts 40°
2026-05-05 23:16 -16.62839 -39.44769 7404 ft 282 kts 39°
2026-05-05 23:16 -16.61281 -39.43539 7080 ft 280 kts 40°
2026-05-05 23:16 -16.59730 -39.42315 6768 ft 279 kts 40°
2026-05-05 23:17 -16.58184 -39.41096 6436 ft 278 kts 40°
2026-05-05 23:17 -16.56647 -39.39882 6112 ft 277 kts 40°
2026-05-05 23:17 -16.55114 -39.38671 5795 ft 275 kts 40°
2026-05-05 23:17 -16.53596 -39.37472 5485 ft 273 kts 40°
2026-05-05 23:18 -16.52133 -39.36225 5165 ft 269 kts 49°
2026-05-05 23:18 -16.51081 -39.34651 4856 ft 263 kts 68°
2026-05-05 23:18 -16.50519 -39.32866 4555 ft 258 kts 77°
2026-05-05 23:18 -16.50042 -39.31063 4257 ft 257 kts 77°
2026-05-05 23:19 -16.49559 -39.29268 3858 ft 259 kts 77°
2026-05-05 23:19 -16.49073 -39.27465 3525 ft 258 kts 77°
2026-05-05 23:19 -16.48590 -39.25667 3211 ft 256 kts 77°
2026-05-05 23:19 -16.48111 -39.23893 2922 ft 250 kts 77°
2026-05-05 23:20 -16.47652 -39.22208 2647 ft 235 kts 78°
2026-05-05 23:20 -16.47222 -39.20621 2384 ft 220 kts 78°
2026-05-05 23:20 -16.46818 -39.19138 2169 ft 203 kts 78°
2026-05-05 23:20 -16.46454 -39.17790 1924 ft 189 kts 78°
2026-05-05 23:21 -16.46106 -39.16509 1687 ft 175 kts 78°
2026-05-05 23:21 -16.45787 -39.15323 1456 ft 165 kts 78°
2026-05-05 23:21 -16.45488 -39.14213 1244 ft 153 kts 78°
2026-05-05 23:21 -16.45219 -39.13211 1054 ft 140 kts 78°
2026-05-05 23:22 -16.44962 -39.12251 873 ft 137 kts 76°
2026-05-05 23:22 -16.44711 -39.11307 695 ft 135 kts 76°
2026-05-05 23:22 -16.44444 -39.10367 487 ft 136 kts 72°
2026-05-05 23:22 -16.44190 -39.09387 284 ft 146 kts 76°
2026-05-05 23:23 -16.43920 -39.08373 198 ft 126 kts 75°
2026-05-05 23:23 -16.43778 -39.07820 200 ft 39 kts 76°
2026-05-05 23:23 -16.43748 -39.07670 205 ft 8 kts 25°
2026-05-05 23:23 -16.43743 -39.07718 207 ft 12 kts 246°
2026-05-05 23:24 -16.43778 -39.07817 202 ft 16 kts 254°
2026-05-05 23:24 -16.43811 -39.07946 194 ft 20 kts 254°
2026-05-05 23:24 -16.43840 -39.08047 199 ft 23 kts 253°
2026-05-05 23:24 -16.43884 -39.08213 198 ft 25 kts 256°
2026-05-05 23:25 -16.44005 -39.08300 194 ft 17 kts 163°
2026-05-05 23:25 -16.44060 -39.08272 198 ft 9 kts 116°
2026-05-05 23:25 -16.44045 -39.08197 194 ft 12 kts 73°
2026-05-05 23:25 -16.44020 -39.08107 198 ft 13 kts 73°
2026-05-05 23:26 -16.44023 -39.08073 194 ft 3 kts 153°
2026-05-05 23:26 -16.44049 -39.08062 197 ft 4 kts 163°
2026-05-05 23:26 -16.44059 -39.08060 198 ft 0 kts 165°